Flag Weather past 2 weeks in Friedrichshafen, Baden-Württemberg, Germany

Now
36 °F

Low clouds.


Feels Like: 30 °F
Forecast: 38 / 48 °F
Wind: 7 mph from Northeast

Location: Friedrichshafen Airport

Current Time: Nov 29, 2014 at 7:54:14 AM

Latest Report: Nov 29, 2014 at 7:20 AM


Visibility: N/A

Pressure: 29.89 "Hg

Humidity: 87%

Dew point: 32 °F

Location of FriedrichshafenLocation

Historic Weather in Friedrichshafen — Graph

°F

Friedrichshafen temperature yesterday

Maximum temperature yesterday: 45 °F (at 12:20 PM)
Minimum temperature yesterday: 37 °F (at 5:20 PM)
Average temperature yesterday: 40 °F

Past Weeks' High & Low Weather Summary

 TemperatureHumidityPressure
High54 °F (Nov 16, 3:50 PM)93% (Nov 14, 6:50 AM)30.27 "Hg (Nov 14, 6:50 AM)
Low34 °F (Nov 17, 2:20 AM)47% (Nov 19, 3:20 PM)29.53 "Hg (Nov 15, 7:20 PM)
Average43 °F86%29.95 "Hg
* Reported Nov 14 6:20 AM — Nov 29 6:50 AM, Friedrichshafen, Weather by CustomWeather, © 2014

Note: Actual official high and low records may vary slightly from our data, if they occured in-between our weather recording intervals... More about our weather records

Advertising

Friedrichshafen weather history for previous 24 hours

 ConditionsComfort  
Time TempWeatherWind HumidityBarometerVisibility
6:50 AM
Nov 29
36 °FLow clouds.6 mph87%29.89 "HgN/A
6:20 AM36 °FLow clouds.6 mph87%29.89 "HgN/A
5:50 AM36 °FLow clouds.7 mph87%29.89 "HgN/A
5:20 AM36 °FLow clouds.7 mph87%29.89 "HgN/A
4:50 AM36 °FLow clouds.8 mph87%29.89 "HgN/A
4:20 AM36 °FLow clouds.8 mph87%29.86 "HgN/A
4:04 AM36 °FLow clouds.8 mph87%29.89 "HgN/A
3:50 AM36 °FLow clouds.9 mph87%29.86 "HgN/A
3:20 AM36 °FLow clouds.10 mph87%29.86 "HgN/A
2:50 AM36 °FLow clouds.9 mph87%29.86 "HgN/A
2:20 AM36 °FLow clouds.10 mph87%29.86 "HgN/A
1:50 AM36 °FLow clouds.10 mph87%29.86 "HgN/A
1:20 AM36 °FLow clouds.9 mph87%29.86 "HgN/A
12:50 AM36 °FLow clouds.10 mph87%29.86 "HgN/A
12:20 AM36 °FLow clouds.9 mph87%29.86 "HgN/A
11:50 PM
Nov 28
37 °FLow clouds.10 mph81%29.86 "HgN/A
11:20 PM37 °FLow clouds.12 mph81%29.86 "HgN/A
10:57 PM37 °FLow clouds.12 mph81%29.86 "HgN/A
10:50 PM37 °FLow clouds.10 mph81%29.86 "HgN/A
10:20 PM37 °FLow clouds.9 mph81%29.86 "HgN/A
9:50 PM37 °FLow clouds.12 mph81%29.86 "HgN/A
9:20 PM37 °FLow clouds.10 mph81%29.83 "HgN/A
8:50 PM37 °FLow clouds.10 mph87%29.83 "HgN/A
8:20 PM37 °FLow clouds.10 mph87%29.83 "HgN/A
7:50 PM37 °FLow clouds.12 mph87%29.80 "HgN/A
7:20 PM37 °FLow clouds.10 mph87%29.80 "HgN/A
6:50 PM37 °FLow clouds.12 mph87%29.80 "HgN/A
6:20 PM37 °FLow clouds.10 mph87%29.80 "HgN/A
5:50 PM37 °FPassing clouds.12 mph87%29.77 "HgN/A
5:20 PM37 °FPassing clouds.12 mph87%29.77 "HgN/A
4:50 PM39 °FPassing clouds.14 mph81%29.74 "HgN/A
4:20 PM39 °FScattered clouds.15 mph81%29.74 "HgN/A
3:50 PM41 °FSunny.13 mph76%29.74 "Hg10 mi
3:20 PM41 °FPassing clouds.15 mph81%29.74 "HgN/A
2:50 PM43 °FPassing clouds.16 mph76%29.74 "HgN/A
2:20 PM43 °FPassing clouds.16 mph76%29.74 "HgN/A
1:50 PM45 °FSunny.14 mph71%29.74 "Hg10 mi
1:20 PM45 °FPassing clouds.13 mph71%29.74 "HgN/A
12:50 PM45 °FQuite cool.13 mph71%29.77 "HgN/A
12:20 PM45 °FSunny.12 mph71%29.77 "Hg10 mi
11:50 AM43 °FPassing clouds.13 mph76%29.77 "HgN/A
11:20 AM41 °FScattered clouds.12 mph81%29.80 "HgN/A
10:50 AM43 °FScattered clouds.12 mph76%29.80 "HgN/A
10:20 AM41 °FPartly sunny.12 mph81%29.80 "HgN/A
9:50 AM41 °FPartly sunny.10 mph81%29.80 "HgN/A
9:20 AM39 °FPartly sunny.8 mph87%29.80 "HgN/A
8:50 AM39 °FPartly sunny.6 mph81%29.80 "HgN/A
8:20 AM39 °FPartly sunny.10 mph81%29.80 "HgN/A
7:50 AM39 °FLow clouds.13 mph81%29.80 "HgN/A
7:20 AM39 °FLow clouds.9 mph87%29.77 "HgN/A
Weather by CustomWeather, © 2014

See weather overviewHow to use our weather pages